Hamilton, OH

12:51 AM EDT on July 23, 2017 (GMT -0400)
Butler County Regional

Weather History for KHAO - August, 2013

Change the Weather History Date:

Wednesday, August 21, 2013

  Actual Average (KLUK) Record (KLUK)
Temperature  
Mean Temperature 76 °F -  
Max Temperature 88 °F 84 °F 100 °F (1983)
Min Temperature 66 °F 63 °F 44 °F (1950)
Cooling Degree Days 12    
Growing Degree Days 26 (Base 50)    
Moisture  
Dew Point 67 °F    
Average Humidity 77    
Maximum Humidity 93    
Minimum Humidity 49    
Precipitation  
Precipitation 0.00 in - - ()
Sea Level Pressure  
Sea Level Pressure 30.12 in    
Wind  
Wind Speed 1 mph (WSW)    
Max Wind Speed 6 mph    
Max Gust Speed -    
Visibility 9 miles    
Events Thunderstorm    
Averages and records for this station are not official NWS values.
T = Trace of Precipitation, MM = Missing Value Source: NWS Daily Summary

Daily Weather History Graph

Daily Weather History Graph

Search for Another Location

Airport or City:

Trip Planner

Search our weather history database for the weather conditions in past years. The results will help you decide how hot, cold, wet, or windy it might be!

Date:

Astronomy

Aug. 21, 2013 Rise Set
Actual Time 6:56 AM EDT 8:24 PM EDT
Civil Twilight 6:28 AM EDT 8:53 PM EDT
Nautical Twilight 5:54 AM EDT 9:26 PM EDT
Astronomical Twilight 5:18 AM EDT 10:02 PM EDT
Moon 8:33 PM EDT (8/21) 7:35 AM EDT (8/21)
Length of Visible Light 14h 24m
Length of Day
13h 28m
Full, 100% of the Moon is Illuminated
Aug 21
Full
Aug 28
Last Quarter
Sep 5
New
Sep 12
First Quarter
Sep 19
Full

Hourly Weather History & Observations

Time (EDT) Temp. Heat Index Dew Point Humidity Pressure Visibility Wind Dir Wind Speed Gust Speed Precip Events Conditions
12:53 AM 71.1 °F - 64.0 °F 78% 30.14 in 9.0 mi Calm Calm - N/A   Partly Cloudy
1:53 AM 69.1 °F - 64.0 °F 84% 30.14 in 8.0 mi Calm Calm - N/A   Clear
2:53 AM 68.0 °F - 64.0 °F 87% 30.13 in 7.0 mi Calm Calm - N/A   Clear
3:53 AM 66.0 °F - 64.0 °F 93% 30.13 in 4.0 mi Calm Calm - N/A   Clear
4:53 AM 66.0 °F - 63.0 °F 90% 30.13 in 6.0 mi Calm Calm - N/A   Clear
5:53 AM 66.9 °F - 64.9 °F 93% 30.13 in 6.0 mi Calm Calm - N/A   Mostly Cloudy
6:53 AM 66.9 °F - 64.9 °F 93% 30.14 in 6.0 mi Calm Calm - N/A   Partly Cloudy
7:53 AM 68.0 °F - 64.9 °F 90% 30.16 in 4.0 mi Calm Calm - N/A   Clear
8:53 AM 73.9 °F - 68.0 °F 82% 30.17 in 6.0 mi Calm Calm - N/A   Haze
9:53 AM 75.9 °F - 69.1 °F 79% 30.18 in 7.0 mi Calm Calm - N/A   Overcast
10:53 AM 81.0 °F 84.4 °F 70.0 °F 69% 30.17 in 10.0 mi Calm Calm - N/A   Mostly Cloudy
11:53 AM 82.0 °F 85.9 °F 70.0 °F 67% 30.16 in 10.0 mi NW 3.5 mph - N/A   Clear
12:53 PM 86.0 °F 90.7 °F 70.0 °F 59% 30.15 in 10.0 mi South 3.5 mph - N/A   Partly Cloudy
1:53 PM 81.0 °F 84.4 °F 70.0 °F 69% 30.14 in 10.0 mi West 5.8 mph - N/A Thunderstorm Partly Cloudy
2:33 PM 78.8 °F - 68.0 °F 69% 30.15 in 10.0 mi Variable 3.5 mph - N/A   Partly Cloudy
2:53 PM 79.0 °F - 64.9 °F 62% 30.13 in 10.0 mi West 5.8 mph - N/A   Clear
3:53 PM 86.0 °F 88.2 °F 66.0 °F 51% 30.09 in 10.0 mi Calm Calm - N/A   Clear
4:53 PM 87.1 °F 89.2 °F 66.0 °F 49% 30.09 in 10.0 mi SSW 4.6 mph - N/A   Clear
5:53 PM 87.1 °F 89.9 °F 66.9 °F 51% 30.08 in 10.0 mi Variable 3.5 mph - N/A   Partly Cloudy
6:53 PM 78.1 °F - 71.1 °F 79% 30.07 in 10.0 mi Calm Calm - N/A   Clear
7:07 PM 78.8 °F - 69.8 °F 74% 30.09 in 10.0 mi Calm Calm - N/A Thunderstorm Partly Cloudy
7:22 PM 77.0 °F - 69.8 °F 78% 30.09 in 10.0 mi Calm Calm - N/A   Mostly Cloudy
7:53 PM 75.9 °F - 69.1 °F 79% 30.08 in 10.0 mi Calm Calm - N/A   Partly Cloudy
8:53 PM 73.0 °F - 68.0 °F 84% 30.07 in 10.0 mi Calm Calm - 0.00 in   Clear
9:53 PM 71.1 °F - 68.0 °F 90% 30.07 in 10.0 mi Calm Calm - N/A   Clear
10:53 PM 71.1 °F - 68.0 °F 90% 30.11 in 8.0 mi Calm Calm - N/A   Mostly Cloudy
11:53 PM 71.1 °F - 66.9 °F 87% 30.12 in 10.0 mi Calm Calm - N/A   Partly Cloudy